2022-043H (52327 NORAD) Tracking and Keplerian Element Data

This shows tracking and keplerian element data for the satellite.

Feedback or suggestion? Click here.




ElementValue
Catalog52327
Name2022-043H
Epoch Orbit419
Epoch Day147.00489168
Epoch Year2022
RAAN222.5961
Inclination97.7073
Eccentricity0.0118241
Argument of Perigee123.3738
Mean Anonmoly237.8275
Mean Motion15.06326861
Decay Rate0.00041714
L11 52327U 22043H 22147.00489168 .00041714 00000+0 24123-2 0 9992
L22 52327 97.7073 222.5961 0118241 123.3738 237.8275 15.06326861 4191

Live tracking and technical data element details for 2022-043H (NORAD 52327). 2022-043H can be tracked NOW for your location showing map with azimuth and elevation plus other details from your city location.

Track the satellite on the map from your city or location and see movement details for azimuth, elevation, latitude, longitude, range, height, and movement on the map or in text.







IsCatalogInMostPopularTable: catalog: 52327, numindb: 5
Update: records affected: 1



GetName: 52327 2022-043H

Hit Count: updated at: Sat, 25 Jun 2022 05:02:06 GMT